This demonstration page uses our WeatherBlox Daily Observations layout. Learn more.

Left ArrowRight Arrow

Hourly Observations for March 16, 2023

Temp ( °F °C ) Dew Point ( °F °C ) Humidity (%) Winds ( mph kmh ) Pressure ( in mb ) Visibility ( mi km ) Precip ( " mm )
12:52 am 00:52 Clear 47 8.3 31 -0.6 53 53 S 22 35 29.88 1012 10 16 0.00 0.00
1:52 am 01:52 Clear 46 7.8 31 -0.6 55 55 SSE 21 33 29.86 1011 10 16 0.00 0.00
2:52 am 02:52 Cloudy 47 8.3 32 0 56 56 SSE 20 31 29.84 1011 10 16 0.00 0.00
3:52 am 03:52 Clear 47 8.3 32 0 56 56 SSE 18 30 29.80 1009 10 16 0.00 0.00
4:52 am 04:52 Clear 47 8.3 32 0 56 56 SSE 17 28 29.78 1008 10 16 0.00 0.00
5:52 am 05:52 Mostly Cloudy with Light Rain 47 8.3 34 1.1 60 60 S 20 31 29.78 1008 10 16 0.01 0.13
6:52 am 06:52 Partly Cloudy 47 8.3 36 2.2 65 65 SSE 15 24 29.78 1008 10 16 0.01 0.13
7:52 am 07:52 Mostly Sunny 49 9.4 37 2.8 63 63 SSE 18 30 29.76 1008 10 16 0.00 0.00
8:52 am 08:52 Mostly Cloudy 53 11.7 39 3.9 59 59 S 22 35 29.74 1007 10 16 0.00 0.00
9:23 am 09:23 Cloudy 54 12.2 39 3.9 57 57 S 16 26 29.75 1007 10 16 0.00 0.00
9:52 am 09:52 Cloudy 55 12.8 41 5 59 59 S 16 26 29.72 1007 10 16 0.00 0.00
10:52 am 10:52 Cloudy 57 13.9 46 7.8 67 67 S 20 31 29.73 1007 10 16 0.00 0.00
11:52 am 11:52 Cloudy 59 15 49 9.4 69 69 S 20 31 29.71 1006 10 16 0.00 0.00
12:52 pm 12:52 Cloudy 61 16.1 51 10.6 70 70 S 20 31 29.69 1006 10 16 0.01 0.13
1:52 pm 13:52 Cloudy 61 16.1 52 11.1 72 72 S 20 31 29.66 1004 10 16 0.00 0.00
2:52 pm 14:52 Cloudy 60 15.6 53 11.7 78 78 S 20 31 29.63 1004 10 16 0.01 0.13
3:52 pm 15:52 Cloudy with Light Rain 60 15.6 53 11.7 78 78 S 17 28 29.61 1003 10 16 0.01 0.13
4:20 pm 16:20 Cloudy with Heavy Rain 57 13.9 54 12.2 89 89 S 18 30 29.62 1003 3 4 0.01 0.13
4:36 pm 16:36 Cloudy with Rain 56 13.3 55 12.8 97 97 S 15 24 29.63 1003 4 6 0.12 3.05
4:47 pm 16:47 Cloudy with Light Rain 55 13 55 13 100 100 S 15 24 29.61 1003 5 8 0.15 3.81
4:52 pm 16:52 Cloudy with Light Rain 56 13.3 55 12.8 97 97 S 16 26 29.61 1003 7 11 0.16 4.06
5:09 pm 17:09 Cloudy with Light Rain 57 13.9 56 13.3 96 96 S 13 20 29.59 1002 10 16 0.01 0.13
5:34 pm 17:34 Mostly Cloudy with Light Rain 57 13.9 55 12.8 93 93 S 16 26 29.61 1003 10 16 0.01 0.13
5:48 pm 17:48 Cloudy with Light Rain 55 13 55 13 100 100 S 16 26 29.63 1003 8 13 0.01 0.13
5:52 pm 17:52 Cloudy with Light Rain 56 13.3 55 12.8 97 97 S 16 26 29.62 1003 6 10 0.01 0.13
6:38 pm 18:38 Cloudy with Rain 56 13.3 55 12.8 97 97 S 13 20 29.61 1003 7 11 0.07 1.78
6:52 pm 18:52 Cloudy with Heavy Rain 52 11.1 50 10 93 93 W 26 43 29.66 1005 3 5 0.12 3.05
6:59 pm 18:59 Cloudy with Light Rain 48 8.9 46 7.8 93 93 NW 22 35 29.69 1005 5 8 0.02 0.51
7:52 pm 19:52 Cloudy with Light Rain 41 5 39 3.9 93 93 NW 20 31 29.74 1007 9 14 0.05 1.27
8:52 pm 20:52 Cloudy with Light Rain 38 3.3 36 2.2 92 92 NW 17 28 29.78 1008 10 16 0.01 0.13
9:52 pm 21:52 Cloudy with Mist and Fog 37 2.8 35 1.7 92 92 NW 20 31 29.82 1010 6 10 0.01 0.13
10:52 pm 22:52 Cloudy with Mist and Fog 35 1.7 33 0.6 92 92 NNW 29 46 29.85 1011 5 8 0.01 0.13
11:23 pm 23:23 Cloudy 34 1.1 32 0 92 92 NNW 22 35 29.92 1013 9 14 0.00 0.00
11:33 pm 23:33 Cloudy 34 1.1 31 -0.6 88 88 NNW 23 37 29.92 1013 10 16 0.00 0.00
11:52 pm 23:52 Cloudy 34 1.1 31 -0.6 88 88 NW 20 31 29.88 1012 10 16 0.00 0.00

Powered by Vaisala Xweather